Date String (YYYY-MM-DD hh:mm:ss) UTC,Instrument flags,absolute air pressure of the measurement (hPa),sample flow rate (lpm),inlet stack bypass flow (lpm),air temperature of the measurement (°C),ambient temperature measured by the external sensor (°C),aerosol sample conditioner tube jacket temperature (°C),OPC LED temperature (°C),internal box temperature (°C),relative humidity of the measurement (%),span deviation,mass concentration of particles derived from Lorenz-Mie calculation of OPC scattering (μg/m³),mass concentration of particles derived from Lorenz-Mie calculation of OPC scattering (μg/m³),mass concentration of particles derived from Lorenz-Mie calculation of OPC scattering (μg/m³)
DateTimeUTC,F1_M11,P_M11,Q1_M11,Q2_M11,T1_M11,T2_M11,T3_M11,T4_M11,T5_M11,U1_M11,ZSPAN_M11,X0_M11,X2_M11,X1_M11
2023-10-23 17:00:00,SystemResetWarning,0823.5,5.00,000.00,029.0,027.9,000.0,037.4,030.7,13.7,0000.0,0012.34,0004.96,0003.98
2023-10-23 17:01:00,SystemResetWarning,0823.6,5.00,000.00,029.0,027.5,000.0,037.4,030.8,13.5,0000.0,0012.42,0004.97,0003.98
2023-10-23 17:02:00,SystemResetWarning,0823.5,4.98,000.00,029.0,025.8,000.0,037.3,030.6,13.3,0000.0,0011.66,0004.90,0003.97
2023-10-23 17:03:00,SystemResetWarning,0823.5,5.01,000.00,028.9,024.7,000.0,037.2,030.4,13.1,0000.0,0011.29,0004.86,0003.96
2023-10-23 17:04:00,SystemResetWarning,0823.5,5.02,000.00,028.8,024.8,000.0,037.2,030.3,13.4,0000.0,0011.91,0004.88,0003.95
2023-10-23 17:05:00,SystemResetWarning,0823.5,5.00,000.00,028.7,025.2,000.0,037.2,030.2,13.4,0000.0,0012.62,0004.94,0003.96
2023-10-23 17:06:00,SystemResetWarning,0823.5,5.00,000.00,028.7,025.5,000.0,037.2,030.2,13.5,0000.0,0012.89,0004.99,0003.96
2023-10-23 17:07:00,SystemResetWarning,0823.5,4.99,000.00,028.7,025.9,000.0,037.2,030.2,13.7,0000.0,0012.19,0005.03,0003.96
2023-10-23 17:08:00,SystemResetWarning,0823.5,5.00,000.00,028.7,026.3,000.0,037.2,030.3,13.7,0000.0,0012.79,0005.12,0003.98
2023-10-23 17:09:00,SystemResetWarning,0823.5,5.00,000.00,028.7,026.6,000.0,037.2,030.3,13.7,0000.0,0013.96,0005.15,0003.99
2023-10-23 17:10:00,SystemResetWarning,0823.5,5.00,000.00,028.7,026.8,000.0,037.2,030.4,13.8,0000.0,0013.76,0005.11,0003.98
2023-10-23 17:11:00,SystemResetWarning,0823.5,5.00,000.00,028.7,027.0,000.0,037.2,030.4,13.7,0000.0,0013.72,0005.10,0003.99
2023-10-23 17:12:00,SystemResetWarning,0823.5,4.99,000.00,028.8,027.2,000.0,037.2,030.5,13.7,0000.0,0013.71,0005.13,0004.00
2023-10-23 17:13:00,SystemResetWarning,0823.5,5.01,000.00,028.8,027.4,000.0,037.2,030.5,13.7,0000.0,0013.87,0005.15,0004.01
2023-10-23 17:14:00,SystemResetWarning,0823.5,5.00,000.00,028.8,027.5,000.0,037.3,030.6,13.7,0000.0,0014.10,0005.15,0004.01
2023-10-23 17:15:00,SystemResetWarning,0823.4,4.98,000.00,028.8,027.6,000.0,037.3,030.6,13.7,0000.0,0013.24,0005.12,0004.00
2023-10-23 17:16:00,SystemResetWarning,0823.4,5.00,000.00,028.9,027.7,000.0,037.3,030.7,13.6,0000.0,0012.43,0005.07,0003.99
2023-10-23 17:17:00,SystemResetWarning,0823.4,5.01,000.00,028.9,027.8,000.0,037.3,030.7,13.7,0000.0,0012.28,0005.07,0003.99
2023-10-23 17:18:00,SystemResetWarning,0823.4,4.99,000.00,028.9,026.7,000.0,037.3,030.7,13.7,0000.0,0012.19,0005.03,0003.97
2023-10-23 17:19:00,SystemResetWarning,0823.4,5.01,000.00,028.9,024.9,000.0,037.2,030.4,13.5,0000.0,0011.70,0005.01,0003.96
2023-10-23 17:20:00,SystemResetWarning,0823.4,5.01,000.00,028.8,024.7,000.0,037.1,030.3,13.5,0000.0,0010.58,0005.02,0003.96
2023-10-23 17:21:00,SystemResetWarning,0823.3,5.01,000.00,028.7,025.0,000.0,037.1,030.2,13.3,0000.0,0010.61,0005.05,0003.96
2023-10-23 17:22:00,SystemResetWarning,0823.3,4.99,000.00,028.6,025.4,000.0,037.2,030.1,13.5,0000.0,0010.89,0005.04,0003.97
2023-10-23 17:23:00,SystemResetWarning,0823.3,5.01,000.00,028.6,025.7,000.0,037.2,030.2,13.7,0000.0,0011.39,0005.03,0003.96
2023-10-23 17:24:00,SystemResetWarning,0823.3,4.98,000.00,028.6,026.1,000.0,037.2,030.2,13.8,0000.0,0011.44,0005.05,0003.97
2023-10-23 17:25:00,SystemResetWarning,0823.3,5.00,000.00,028.6,026.4,000.0,037.2,030.3,13.8,0000.0,0012.07,0005.09,0003.98
2023-10-23 17:26:00,SystemResetWarning,0823.3,5.00,000.00,028.6,026.7,000.0,037.2,030.3,13.7,0000.0,0012.15,0005.11,0003.98
2023-10-23 17:27:00,SystemResetWarning,0823.3,5.00,000.00,028.7,027.0,000.0,037.2,030.4,13.6,0000.0,0012.06,0005.14,0003.98
2023-10-23 17:28:00,SystemResetWarning,0823.3,5.00,000.00,028.7,027.2,000.0,037.2,030.4,13.7,0000.0,0011.94,0005.11,0003.97
2023-10-23 17:29:00,SystemResetWarning,0823.3,5.00,000.00,028.7,027.3,000.0,037.2,030.5,14.0,0000.0,0011.98,0005.12,0003.98
2023-10-23 17:30:00,SystemResetWarning,0823.3,5.00,000.00,028.8,027.5,000.0,037.2,030.6,14.1,0000.0,0011.86,0005.09,0003.99
2023-10-23 17:31:00,SystemResetWarning,0823.3,4.99,000.00,028.8,027.6,000.0,037.2,030.6,13.9,0000.0,0013.40,0005.09,0004.00
2023-10-23 17:32:00,SystemResetWarning,0823.2,5.00,000.00,028.8,027.7,000.0,037.2,030.7,13.8,0000.0,0014.87,0005.12,0004.00
2023-10-23 17:33:00,SystemResetWarning,0823.2,4.98,000.00,028.9,027.5,000.0,037.2,030.7,13.9,0000.0,0014.58,0005.09,0004.00
2023-10-23 17:34:00,SystemResetWarning,0823.1,5.00,000.00,028.8,025.7,000.0,037.2,030.5,13.9,0000.0,0013.98,0005.05,0004.00
2023-10-23 17:35:00,SystemResetWarning,0823.1,5.00,000.00,028.8,024.7,000.0,037.1,030.3,14.1,0000.0,0013.89,0005.03,0004.00
2023-10-23 17:36:00,SystemResetWarning,0823.1,5.02,000.00,028.7,024.8,000.0,037.1,030.2,14.1,0000.0,0013.40,0005.00,0003.99
2023-10-23 17:37:00,SystemResetWarning,0823.1,5.01,000.00,028.6,025.2,000.0,037.1,030.1,14.2,0000.0,0015.05,0005.02,0003.98
2023-10-23 17:38:00,SystemResetWarning,0823.1,5.00,000.00,028.6,025.5,000.0,037.1,030.1,14.0,0000.0,0016.26,0005.03,0003.99
2023-10-23 17:39:00,SystemResetWarning,0823.1,5.00,000.00,028.5,025.9,000.0,037.1,030.1,14.2,0000.0,0016.39,0005.03,0004.01
2023-10-23 17:40:00,SystemResetWarning,0823.1,5.00,000.00,028.6,026.3,000.0,037.1,030.2,14.5,0000.0,0017.01,0005.08,0004.03
2023-10-23 17:41:00,SystemResetWarning,0823.1,5.00,000.00,028.6,026.6,000.0,037.1,030.2,14.3,0000.0,0017.32,0005.13,0004.02
2023-10-23 17:42:00,SystemResetWarning,0823.1,4.99,000.00,028.6,026.8,000.0,037.1,030.3,14.0,0000.0,0016.84,0005.17,0004.03
2023-10-23 17:43:00,SystemResetWarning,0823.1,4.99,000.00,028.6,027.1,000.0,037.1,030.4,14.0,0000.0,0015.01,0005.15,0004.04
2023-10-23 17:44:00,SystemResetWarning,0823.1,5.00,000.00,028.7,027.2,000.0,037.1,030.4,14.1,0000.0,0015.27,0005.19,0004.04
2023-10-23 17:45:00,SystemResetWarning,0823.1,5.00,000.00,028.7,027.4,000.0,037.1,030.5,14.1,0000.0,0015.47,0005.21,0004.05
2023-10-23 17:46:00,SystemResetWarning,0823.0,5.01,000.00,028.7,027.6,000.0,037.1,030.5,14.0,0000.0,0015.43,0005.21,0004.06
2023-10-23 17:47:00,SystemResetWarning,0823.1,5.00,000.00,028.8,027.7,000.0,037.2,030.6,14.0,0000.0,0015.09,0005.26,0004.07
2023-10-23 17:48:00,SystemResetWarning,0823.1,4.99,000.00,028.8,027.3,000.0,037.2,030.7,14.0,0000.0,0013.67,0005.29,0004.07
2023-10-23 17:49:00,SystemResetWarning,0823.0,4.99,000.00,028.8,025.5,000.0,037.1,030.5,13.9,0000.0,0013.09,0005.32,0004.07
2023-10-23 17:50:00,SystemResetWarning,0823.0,5.01,000.00,028.7,024.5,000.0,037.0,030.3,13.7,0001.2,0012.76,0005.30,0004.07
2023-10-23 17:51:00,SystemResetWarning,0823.0,5.00,000.00,028.6,024.8,000.0,037.0,030.2,14.1,0000.0,0012.40,0005.26,0004.05
2023-10-23 17:52:00,SystemResetWarning,0822.9,5.00,000.00,028.5,025.1,000.0,037.0,030.0,14.0,0000.0,0012.70,0005.26,0004.06
2023-10-23 17:53:00,SystemResetWarning,0823.1,5.00,000.00,028.5,025.5,000.0,037.0,030.0,13.9,0002.3,0012.07,0005.22,0004.05
2023-10-23 17:54:00,SystemResetWarning,0823.1,5.00,000.00,028.5,025.9,000.0,037.0,030.1,13.7,0003.2,0011.98,0005.17,0004.03
2023-10-23 17:55:00,SystemResetWarning,0823.0,5.00,000.00,028.5,026.2,000.0,037.0,030.1,13.7,0002.6,0011.86,0005.20,0004.03
2023-10-23 17:56:00,SystemResetWarning,0822.9,5.00,000.00,028.5,026.6,000.0,037.0,030.2,13.7,0000.1,0011.84,0005.24,0004.04
2023-10-23 17:57:00,SystemResetWarning,0823.0,5.01,000.00,028.6,026.8,000.0,037.0,030.3,13.8,0000.0,0012.13,0005.24,0004.04
2023-10-23 17:58:00,SystemResetWarning,0823.0,5.00,000.00,028.6,027.1,000.0,037.0,030.4,13.8,0000.0,0012.56,0005.20,0004.04
2023-10-23 17:59:00,SystemResetWarning,0822.9,4.99,000.00,028.6,027.3,000.0,037.1,030.4,13.8,0000.0,0012.48,0005.15,0004.05
